Flag for Germany Weather past 2 weeks in Neumarkt in der Oberpfalz, Bavaria, Germany

Now
28 °F

Clear.


Feels Like: 28 °F
Forecast: 34 / 52 °F
Wind: 1 mph from West

Location: Hohenfels


UV Index: 3 (Moderate)

Visibility: N/A


Pressure: 30.42 "Hg

Humidity: 86%

Dew point: 25 °F

Location of Neumarkt in der OberpfalzLocation

Historic Weather in Neumarkt in der Oberpfalz

°F

Neumarkt in der Oberpfalz temperature yesterday

Maximum temperature yesterday: 48 °F (at 1:58 PM)
Minimum temperature yesterday: 32 °F (at 11:58 PM)
Average temperature yesterday: 42 °F

Past Weeks' High & Low Weather Summary

 TemperatureHumidityPressure
High72 °F (Apr 4, 1:58 PM)100% (Apr 4, 7:58 PM)30.44 "Hg (Apr 4, 7:58 PM)
Low28 °F (Apr 17, 1:58 AM)31% (Apr 4, 3:58 PM)29.69 "Hg (Apr 4, 3:58 PM)
Average49 °F72%30.04 "Hg
* Reported Apr 2 1:58 AM — Apr 17 1:58 AM, Neumarkt in der Oberpfalz, Weather by CustomWeather, © 2014

Note: Actual official high and low records may vary slightly from our data, if they occured in-between our weather recording intervals... More about our weather records

Advertising

Historic Weather Conditions — Data for Previous 24 hours

 ConditionsComfort  
Time TempWeatherWind HumidityBarometerVisibility
1:58 AM
Apr 17
28 °FClear.1 mph86%30.42 "HgN/A
12:58 AM30 °FClear.3 mph86%30.44 "HgN/A
11:58 PM
Apr 16
32 °FClear.2 mph87%30.44 "HgN/A
10:58 PM34 °FClear.5 mph81%30.44 "HgN/A
9:58 PM41 °FClear.3 mph61%30.41 "HgN/A
8:58 PM43 °FMostly cloudy.2 mph66%30.41 "HgN/A
7:58 PM45 °FPartly sunny.2 mph61%30.40 "HgN/A
6:58 PM46 °FPartly sunny.5 mph53%30.39 "HgN/A
5:58 PM48 °FScattered clouds.2 mph54%30.39 "HgN/A
4:58 PM48 °FScattered clouds.6 mph46%30.39 "HgN/A
3:58 PM48 °FOvercast.3 mph50%30.39 "HgN/A
2:58 PM48 °FCloudy.3 mph54%30.40 "HgN/A
1:58 PM48 °FOvercast.7 mph46%30.40 "HgN/A
12:58 PM46 °FCloudy.3 mph56%30.40 "HgN/A
11:58 AM45 °FPartly sunny.6 mph61%30.41 "HgN/A
10:58 AM45 °FMore clouds than sun.6 mph61%30.41 "HgN/A
9:58 AM43 °FScattered clouds.5 mph66%30.41 "HgN/A
8:58 AM41 °FMostly cloudy.7 mph76%30.41 "HgN/A
7:58 AM39 °FSunny.2 mph75%30.39 "HgN/A
6:58 AM37 °FMostly cloudy.3 mph81%30.37 "HgN/A
5:58 AM37 °FOvercast.3 mph81%30.36 "HgN/A
4:58 AM37 °FOvercast.1 mph81%30.35 "HgN/A
3:58 AM36 °FPassing clouds.2 mph87%30.34 "HgN/A
Weather by CustomWeather, © 2014

See weather overview